Location: Anan
(43.3550°N, 0.8171°E)
Time: 21:22:06
(UTC+00:00)

SL-24 R/B - Pass Details

Date: 14 May 2026
Orbit: 615 x 1342 km, 97.9° (Epoch: 10 June)

Event Time Altitude Azimuth Distance (km) Brightness Sun altitude
Rises 19:38:42 0° 17° (NNE) 2,912 7.7 -4.9°
Reaches altitude 10° 19:40:50 10° 21° (NNE) 2,029 6.9 -5.2°
Maximum altitude 19:45:08 59° 101° (E) 788 4.3 -5.9°
Drops below altitude 10° 19:49:56 10° 181° (S) 2,267 6.6 -6.6°
Sets 19:52:25 0° 185° (S) 3,288 7.5 -7.0°
